Regional Weather Roundup
Issued by NWS

Home | Current Version | Previous Version | Graphics & Text | Print | Product List | Glossary Off
Versions: 1 2 3 4 5 6 7 8 9 10 11 12 13 14 15 16 17 18 19 20 21 22 23 24 25 26 27 28 29 30 31 32 33 34 35 36 37 38 39 40 41 42 43 44 45 46 47 48 49 50

000
ASUS43 KLSX 180307
RWRMO

WEATHER SUMMARY FOR MISSOURI
NATIONAL WEATHER SERVICE SPRINGFIELD MO
900 PM CST TUE JAN 17 2017

NOTE: "FAIR" INDICATES FEW OR NO CLOUDS BELOW 12,000 FEET WITH NO
       SIGNIFICANT WEATHER AND/OR OBSTRUCTIONS TO VISIBILITY.
       CURRENT SKY AND/OR WEATHER CONDITIONS ARE NOT AVAILABLE FOR
       CHILLICOTHE AND FARMINGTON.

MOZ001>031-035>038-043-044-053-054-180400-
...NORTHERN AND WESTERN MISSOURI...

CITY           SKY/WX    TMP DP  RH WIND       PRES   REMARKS
KANSAS CTY INT CLEAR     28  26  92 S7        30.14S WCI  21
KANSAS C DTWN  CLEAR     31  30  96 CALM      30.16S
LEE`S SUMMIT   PTCLDY    34  32  92 S8        30.17R WCI  27
ST JOSEPH      FOG       27  27 100 CALM      30.16R VSB 1/2
CHILLICOTHE      N/A     36  32  85 CALM      30.17R
KIRKSVILLE     CLOUDY    36  34  92 W6        30.13S

$$
MOZ066>068-077>081-088>096-101>105-180400-
...SOUTHWEST MISSOURI...

CITY           SKY/WX    TMP DP  RH WIND       PRES   REMARKS
SPRINGFIELD    CLOUDY    37  35  92 NW3       30.17F
JOPLIN         CLOUDY    38  36  92 CALM      30.18F
BRANSON        CLOUDY    39  36  87 CALM      30.18S

$$
MOZ032>034-039>042-045>050-055>058-069>072-180400-
...CENTRAL MISSOURI...

CITY           SKY/WX    TMP DP  RH WIND       PRES   REMARKS
COLUMBIA       CLOUDY    38  36  92 W13       30.17R WCI  30
JEFFERSON CITY CLOUDY    40  35  83 W9        30.20R
ROLLA          CLOUDY    37  35  92 W8        30.16S
SEDALIA        CLOUDY    39  34  82 W7        30.19R
WHITEMAN AFB   CLOUDY    37  37 100 SW3       30.17S
WARRENSBURG    MOCLDY    36  32  87 SW3       30.18S
OSAGE BEACH    CLOUDY    38  35  89 W3        30.20S

$$
MOZ051-052-059>065-180400-
...EAST CENTRAL MISSOURI...

CITY           SKY/WX    TMP DP  RH WIND       PRES   REMARKS
ST LOUIS INTL  CLOUDY    42  36  79 W10       30.17R
SPIRIT OF STL  CLOUDY    41  37  86 W7        30.17R
ST CHARLES     CLOUDY    40  38  93 W10       30.16R

$$
MOZ072>076-082>087-097>100-106>115-180400-
...SOUTH CENTRAL AND SOUTHEAST MISSOURI...

CITY           SKY/WX    TMP DP  RH WIND       PRES   REMARKS
CAPE GIRARDEAU CLOUDY    44  40  85 W3        30.16S
FARMINGTON     CLOUDY    40  36  86 NW7       30.17S
POPLAR BLUFF   CLOUDY    45  40  82 W3        30.17S
WEST PLAINS    CLOUDY    40  36  86 NW7       30.16F

$$


USA.gov is the U.S. government's official web portal to all federal, state and local government web resources and services.